| time (UTC) | temp C | wind direction | speed KPH | gust KPH | rain 1hr cm | rain 24hr cm | rain mn cm | humidity % | barometer mb |
| 20260504081509 | 9 | 101 | 0.0 | 0.0 | 0.00 | 0.00 | 0.00 | 82 | 1017.0 |
| 20260504050005 | 11 | 101 | 0.0 | 3.2 | 0.00 | 0.00 | 0.00 | 73 | 1017.6 |
| 20260504044519 | 11 | 101 | 0.0 | 0.0 | 0.00 | 0.00 | 0.00 | 76 | 1017.6 |
| 20260504043016 | 11 | 101 | 0.0 | 0.0 | 0.00 | 0.00 | 0.00 | 72 | 1017.6 |
| 20260504041523 | 11 | 101 | 0.0 | 0.0 | 0.00 | 0.00 | 0.00 | 74 | 1017.6 |
| 20260504040008 | 11 | 101 | 0.0 | 3.2 | 0.00 | 0.00 | 0.00 | 69 | 1017.7 |
| 20260504034508 | 12 | 101 | 0.0 | 0.0 | 0.00 | 0.00 | 0.00 | 70 | 1017.6 |
| 20260504033016 | 12 | 101 | 0.0 | 0.0 | 0.00 | 0.00 | 0.00 | 70 | 1017.8 |
| 20260504031520 | 12 | 101 | 0.0 | 0.0 | 0.00 | 0.00 | 0.00 | 68 | 1017.8 |
| 20260504030026 | 12 | 101 | 0.0 | 0.0 | 0.00 | 0.00 | 0.00 | 68 | 1017.8 |
| 20260504024507 | 13 | 101 | 0.0 | 3.2 | 0.00 | 0.00 | 0.00 | 61 | 1017.7 |
| 20260504023016 | 13 | 101 | 0.0 | 3.2 | 0.00 | 0.00 | 0.00 | 60 | 1017.5 |
| 20260504021518 | 13 | 101 | 0.0 | 3.2 | 0.00 | 0.00 | 0.00 | 63 | 1017.5 |
| 20260504020025 | 14 | 101 | 0.0 | 1.6 | 0.00 | 0.00 | 0.00 | 57 | 1017.3 |
| 20260504014536 | 15 | 101 | 0.0 | 3.2 | 0.00 | 0.00 | 0.00 | 52 | 1017.0 |
| 20260504013012 | 15 | 56 | 0.0 | 3.2 | 0.00 | 0.00 | 0.00 | 49 | 1016.8 |
| 20260504011521 | 15 | 82 | 0.0 | 3.2 | 0.00 | 0.00 | 0.00 | 51 | 1016.6 |
| 20260504010020 | 16 | 352 | 0.0 | 6.4 | 0.00 | 0.00 | 0.00 | 50 | 1016.6 |
| 20260504004524 | 16 | 176 | 0.0 | 3.2 | 0.00 | 0.00 | 0.00 | 47 | 1016.6 |
| 20260504003007 | 16 | 57 | 0.0 | 3.2 | 0.00 | 0.00 | 0.00 | 45 | 1016.4 |
| 20260504001513 | 17 | 51 | 0.0 | 3.2 | 0.00 | 0.00 | 0.00 | 42 | 1016.3 |
| 20260504000003 | 17 | 40 | 1.6 | 6.4 | 0.00 | 0.00 | 0.00 | 43 | 1016.1 |
| 20260503234506 | 18 | 303 | 1.6 | 6.4 | 0.00 | 0.00 | 0.00 | 35 | 1016.0 |
| 20260503233004 | 18 | 7 | 1.6 | 11.3 | 0.00 | 0.00 | 0.00 | 34 | 1016.0 |
| 20260503231514 | 19 | 55 | 0.0 | 8.0 | 0.00 | 0.00 | 0.00 | 37 | 1016.0 |
| 20260503230017 | 20 | 1 | 0.0 | 8.0 | 0.00 | 0.00 | 0.00 | 32 | 1016.1 |
| 20260503224504 | 20 | 250 | 0.0 | 9.7 | 0.00 | 0.00 | 0.00 | 36 | 1016.1 |
| 20260503223008 | 20 | 104 | 1.6 | 9.7 | 0.00 | 0.00 | 0.00 | 33 | 1016.1 |
| 20260503221510 | 20 | 32 | 1.6 | 12.9 | 0.00 | 0.00 | 0.00 | 31 | 1016.2 |
| 20260503220018 | 21 | 359 | 3.2 | 9.7 | 0.00 | 0.00 | 0.00 | 32 | 1016.2 |
| 20260503214525 | 21 | 28 | 4.8 | 12.9 | 0.00 | 0.00 | 0.00 | 33 | 1016.2 |
| 20260503213005 | 20 | 146 | 3.2 | 11.3 | 0.00 | 0.00 | 0.00 | 32 | 1016.3 |
| 20260503211508 | 21 | 37 | 3.2 | 8.0 | 0.00 | 0.00 | 0.00 | 32 | 1016.4 |
| 20260503210012 | 21 | 219 | 3.2 | 4.8 | 0.00 | 0.00 | 0.00 | 33 | 1016.4 |
| 20260503204521 | 21 | 308 | 1.6 | 8.0 | 0.00 | 0.00 | 0.00 | 34 | 1016.6 |
| 20260503203022 | 21 | 61 | 1.6 | 12.9 | 0.00 | 0.00 | 0.00 | 36 | 1016.8 |
| 20260503201510 | 21 | 315 | 3.2 | 8.0 | 0.00 | 0.00 | 0.00 | 33 | 1017.1 |
| 20260503200010 | 21 | 33 | 1.6 | 4.8 | 0.00 | 0.00 | 0.00 | 36 | 1017.4 |
| 20260503194518 | 20 | 167 | 1.6 | 6.4 | 0.00 | 0.00 | 0.00 | 37 | 1017.8 |
| 20260503193021 | 20 | 26 | 1.6 | 8.0 | 0.00 | 0.00 | 0.00 | 35 | 1018.0 |
| 20260503191534 | 20 | 135 | 1.6 | 4.8 | 0.00 | 0.00 | 0.00 | 38 | 1018.3 |
| 20260503190007 | 20 | 234 | 0.0 | 6.4 | 0.00 | 0.00 | 0.00 | 37 | 1018.4 |
| 20260503184515 | 20 | 95 | 1.6 | 3.2 | 0.00 | 0.00 | 0.00 | 39 | 1018.6 |
| 20260503183018 | 20 | 105 | 1.6 | 4.8 | 0.00 | 0.00 | 0.00 | 40 | 1018.8 |
| 20260503181524 | 19 | 103 | 1.6 | 8.0 | 0.00 | 0.00 | 0.00 | 41 | 1018.8 |
| 20260503180035 | 19 | 22 | 1.6 | 4.8 | 0.00 | 0.00 | 0.00 | 41 | 1019.1 |
| 20260503174512 | 18 | 319 | 1.6 | 4.8 | 0.00 | 0.00 | 0.00 | 39 | 1019.1 |
| 20260503173017 | 18 | 355 | 3.2 | 4.8 | 0.00 | 0.00 | 0.00 | 41 | 1019.3 |
| 20260503171524 | 17 | 356 | 1.6 | 8.0 | 0.00 | 0.00 | 0.00 | 40 | 1019.4 |